Location: Sungai Bunut
(2.6333°N, 113.7333°E)
Time: 14:26:26
(UTC+00:00)

Altair - Pass Details

Date: 12 December 2023
Orbit: 1501 x 1682 km, 47.2° (Epoch: 24 February)

Event Time Altitude Azimuth Distance (km) Brightness Sun altitude
Rises 21:42:53 0° 258° (WSW) 4,927 - -9.3°
Exits shadow 21:44:18 - 262° (W) 4,592 9.5 -9.0°
Reaches altitude 10° 21:47:29 10° 275° (W) 3,925 9.0 -8.2°
Maximum altitude 21:53:48 18° 315° (NW) 3,272 8.7 -6.8°
Drops below altitude 10° 22:00:04 10° 355° (N) 3,854 9.3 -5.4°
Sets 22:04:36 0° 13° (NNE) 4,805 10.0 -4.3°
